Lumberton, NC

2:58 PM EST on February 13, 2016 (GMT -0500)
Lumberton Municipal

Weather History for KLBT - December, 2012

Change the Weather History Date:

Monday, December 3, 2012

  Actual Average Record
Temperature  
Mean Temperature 60 °F 49 °F  
Max Temperature 75 °F 61 °F - ()
Min Temperature 44 °F 38 °F - ()
Degree Days  
Heating Degree Days 5 16  
Month to date heating degree days 27 47  
Since 1 July heating degree days 625 513  
Cooling Degree Days 0 0  
Month to date cooling degree days 0 0  
Year to date cooling degree days 2053 1907  
Growing Degree Days 10 (Base 50)    
Moisture  
Dew Point 50 °F    
Average Humidity 73    
Maximum Humidity 100    
Minimum Humidity 46    
Precipitation  
Precipitation 0.00 in 0.11 in - ()
Month to date precipitation 0.00 0.33  
Year to date precipitation 40.68 40.96  
Sea Level Pressure  
Sea Level Pressure 30.29 in    
Wind  
Wind Speed 3 mph (SW)    
Max Wind Speed 14 mph    
Max Gust Speed 20 mph    
Visibility 4 miles    
Events Fog    
T = Trace of Precipitation, MM = Missing Value Source: NWS Daily Summary

Daily Weather History Graph

Daily Weather History Graph

Search for Another Location

Airport or City:

Trip Planner

Search our weather history database for the weather conditions in past years. The results will help you decide how hot, cold, wet, or windy it might be!

Date:

Astronomy

Dec. 03, 2012 Rise Set
Actual Time 7:07 AM EST 5:05 PM EST
Civil Twilight 6:39 AM EST 5:33 PM EST
Nautical Twilight 6:08 AM EST 6:04 PM EST
Astronomical Twilight 5:37 AM EST 6:34 PM EST
Moon 9:43 PM EST (12/3) 10:35 AM EST (12/3)
Length of Visible Light 10h 53m
Length of Day
9h 58m
Waning Gibbous, 78% of the Moon is Illuminated
Dec 3
Waning Gibbous
Dec 6
Last Quarter
Dec 13
New
Dec 20
First Quarter
Dec 28
Full

Hourly Weather History & Observations

Time (EST) Temp. Dew Point Humidity Pressure Visibility Wind Dir Wind Speed Gust Speed Precip Events Conditions
12:15 AM 48.2 °F 48.2 °F 100% 30.29 in 0.2 mi Calm Calm - N/A Fog Fog
12:27 AM 48.2 °F 48.2 °F 100% 30.29 in 0.2 mi SE 4.6 mph - N/A Fog Fog
12:54 AM 48.0 °F 48.0 °F 100% 30.29 in 1.2 mi Calm Calm - N/A   Scattered Clouds
12:57 AM 46.4 °F 46.4 °F 100% 30.29 in 3.0 mi Calm Calm - N/A   Scattered Clouds
12:59 AM 46.4 °F 46.4 °F 100% 30.29 in 1.2 mi Calm Calm - N/A   Scattered Clouds
1:06 AM 48.2 °F 46.4 °F 93% 30.29 in 0.2 mi Calm Calm - N/A Fog Fog
1:54 AM 46.9 °F 46.9 °F 100% 30.30 in 0.2 mi Calm Calm - N/A Fog Fog
2:54 AM 46.9 °F 46.9 °F 100% 30.29 in 0.2 mi Calm Calm - N/A Fog Fog
3:54 AM 45.0 °F 45.0 °F 100% 30.28 in 1.2 mi Calm Calm - N/A   Overcast
3:58 AM 44.6 °F 44.6 °F 100% 30.29 in 0.8 mi Calm Calm - N/A   Mist
4:54 AM 45.0 °F 45.0 °F 100% 30.28 in 0.2 mi Calm Calm - N/A Fog Fog
5:54 AM 45.0 °F 44.1 °F 97% 30.29 in 0.2 mi Calm Calm - N/A Fog Fog
6:54 AM 46.0 °F 46.0 °F 100% 30.30 in 0.2 mi Calm Calm - N/A Fog Fog
7:54 AM 48.0 °F 48.0 °F 100% 30.32 in 0.2 mi Calm Calm - N/A Fog Fog
8:54 AM 52.0 °F 52.0 °F 100% 30.33 in 0.2 mi Calm Calm - N/A Fog Fog
9:26 AM 57.2 °F 55.4 °F 94% 30.33 in 2.0 mi West 4.6 mph - N/A   Overcast
9:42 AM 57.2 °F 57.2 °F 100% 30.33 in 6.0 mi West 5.8 mph - N/A   Scattered Clouds
10:54 AM 68.0 °F 57.9 °F 70% 30.32 in 10.0 mi West 8.1 mph - N/A   Clear
11:54 AM 71.1 °F 57.9 °F 63% 30.28 in 10.0 mi West 10.4 mph - N/A   Clear
12:54 PM 73.0 °F 55.9 °F 55% 30.26 in 10.0 mi WSW 11.5 mph - N/A   Partly Cloudy
1:54 PM 73.9 °F 55.0 °F 52% 30.24 in 10.0 mi SW 10.4 mph - N/A   Mostly Cloudy
2:54 PM 75.0 °F 54.0 °F 48% 30.23 in 10.0 mi WSW 10.4 mph - N/A   Mostly Cloudy
3:54 PM 73.9 °F 52.0 °F 46% 30.24 in 10.0 mi SW 5.8 mph - N/A   Clear
4:54 PM 70.0 °F 53.1 °F 55% 30.25 in 10.0 mi Calm Calm - N/A   Clear
5:54 PM 59.0 °F 54.0 °F 83% 30.26 in 10.0 mi Calm Calm - N/A   Clear
6:54 PM 57.9 °F 53.1 °F 84% 30.27 in 10.0 mi Calm Calm - N/A   Clear
7:54 PM 53.1 °F 51.1 °F 93% 30.28 in 10.0 mi Calm Calm - N/A   Clear
8:54 PM 52.0 °F 50.0 °F 93% 30.28 in 8.0 mi SSE 3.5 mph - N/A   Clear
9:54 PM 52.0 °F 50.0 °F 93% 30.28 in 8.0 mi Calm Calm - N/A   Clear
10:54 PM 51.1 °F 48.9 °F 92% 30.29 in 6.0 mi Calm Calm - N/A   Clear
11:02 PM 51.8 °F 48.2 °F 88% 30.29 in 1.8 mi Calm Calm - N/A   Clear
11:09 PM 51.8 °F 50.0 °F 94% 30.29 in 1.2 mi Calm Calm - N/A   Clear
11:13 PM 51.8 °F 50.0 °F 94% 30.29 in 3.0 mi Calm Calm - N/A   Clear
11:54 PM 51.1 °F 50.0 °F 96% 30.29 in 1.2 mi Calm Calm - N/A   Clear
11:56 PM 51.8 °F 51.8 °F 100% 30.29 in 0.5 mi Calm Calm - N/A Fog Fog